Weather History for Boscobel, WI

Change the Weather History Date:

Monday, February 4, 2013

  Actual Average (KPDC) Record (KPDC)
Temperature  
Mean Temperature 16 °F -  
Max Temperature 24 °F 28 °F 52 °F (1964)
Min Temperature 8 °F 9 °F -23 °F (1965)
Degree Days  
Heating Degree Days 49    
Moisture  
Dew Point 10 °F    
Average Humidity 75    
Maximum Humidity 87    
Minimum Humidity 50    
Precipitation  
Precipitation 0.04 in - - ()
Sea Level Pressure  
Sea Level Pressure 29.97 in    
Wind  
Wind Speed 4 mph (NE)    
Max Wind Speed 8 mph    
Max Gust Speed -    
Visibility 7 miles    
Events Snow    
Averages and records for this station are not official NWS values.
T = Trace of Precipitation, MM = Missing Value Source: NWS Daily Summary

Daily Weather History Graph

Daily Weather History Graph

Search for Another Location

Airport:

Trip Planner

Search our weather history database for the weather conditions in past years. The results will help you decide how hot, cold, wet, or windy it might be!

Date:

Astronomy

Feb. 04, 2013 Rise Set
Actual Time 7:14 AM CST 5:19 PM CST
Civil Twilight 6:44 AM CST 5:49 PM CST
Nautical Twilight 6:10 AM CST 6:23 PM CST
Astronomical Twilight 5:37 AM CST 6:56 PM CST
Moon 1:52 AM CST (2/4) 11:40 AM CST (2/4)
Length of Visible Light 11h 04m
Length of Day
10h 05m
Last Quarter, 37% of the Moon is Illuminated
Feb 4
Last Quarter
Feb 10
New
Feb 17
First Quarter
Feb 25
Full
Mar 4
Last Quarter

Hourly Weather History & Observations

Time (CST) Temp. Windchill Dew Point Humidity Pressure Visibility Wind Dir Wind Speed Gust Speed Precip Events Conditions
12:00 AM 17.6 °F 12.3 °F 14.0 °F 86% 29.96 in 0.8 mi NE 3.5 mph - 0.00 in Snow Light Snow
12:33 AM 17.6 °F 12.3 °F 14.0 °F 86% 29.95 in 1.0 mi NE 3.5 mph - 0.02 in Snow Light Snow
12:43 AM 17.6 °F 10.7 °F 14.0 °F 86% 29.94 in 1.2 mi NE 4.6 mph - 0.03 in Snow Light Snow
12:53 AM 18.0 °F 11.1 °F 14.0 °F 84% 29.99 in 1.2 mi NE 4.6 mph - 0.03 in Snow Light Snow
1:23 AM 17.6 °F 10.7 °F 14.0 °F 86% 29.92 in 2.0 mi ENE 4.6 mph - 0.01 in Snow Light Snow
1:53 AM 18.0 °F 11.1 °F 14.0 °F 84% 29.96 in 2.5 mi NE 4.6 mph - 0.01 in Snow Light Snow
2:01 AM 17.6 °F 10.7 °F 14.0 °F 86% 29.92 in 5.0 mi NE 4.6 mph - 0.00 in Snow Light Snow
2:23 AM 17.6 °F 8.2 °F 12.2 °F 79% 29.93 in 6.0 mi Variable 6.9 mph - 0.00 in Snow Light Snow
2:53 AM 17.1 °F 10.0 °F 12.9 °F 84% 29.96 in 4.0 mi Variable 4.6 mph - 0.00 in Snow Light Snow
3:01 AM 17.6 °F 9.3 °F 12.2 °F 79% 29.91 in 1.8 mi East 5.8 mph - 0.01 in Snow Light Snow
3:15 AM 17.6 °F 9.3 °F 12.2 °F 79% 29.91 in 3.0 mi ENE 5.8 mph - 0.01 in Snow Light Snow
4:53 AM 17.1 °F 10.0 °F 12.9 °F 84% 29.94 in 10.0 mi NE 4.6 mph - 0.00 in   Overcast
5:10 AM 17.6 °F 9.3 °F 12.2 °F 79% 29.91 in 10.0 mi ENE 5.8 mph - N/A   Overcast
5:48 AM 17.6 °F 8.2 °F 12.2 °F 79% 29.92 in 10.0 mi NE 6.9 mph - N/A   Overcast
5:53 AM 17.1 °F 6.6 °F 12.0 °F 81% 29.96 in 10.0 mi NE 8.1 mph - N/A   Overcast
6:53 AM 16.0 °F 7.4 °F 10.0 °F 77% 29.98 in 10.0 mi NE 5.8 mph - N/A   Overcast
7:53 AM 16.0 °F 6.3 °F 10.0 °F 77% 29.99 in 10.0 mi NE 6.9 mph - N/A   Overcast
8:53 AM 16.0 °F 6.3 °F 9.0 °F 74% 30.01 in 8.0 mi Variable 6.9 mph - N/A   Overcast
9:53 AM 16.0 °F 7.4 °F 8.1 °F 71% 30.01 in 10.0 mi NE 5.8 mph - N/A   Overcast
10:53 AM 17.1 °F 10.0 °F 9.0 °F 71% 30.04 in 10.0 mi NE 4.6 mph - N/A   Overcast
11:11 AM 17.6 °F 10.7 °F 8.6 °F 68% 30.00 in 10.0 mi NE 4.6 mph - N/A   Overcast
11:53 AM 19.9 °F 12.1 °F 9.0 °F 62% 30.04 in 10.0 mi North 5.8 mph - N/A   Overcast
12:53 PM 21.9 °F - 10.0 °F 60% 30.03 in 10.0 mi Calm Calm - N/A   Clear
1:53 PM 21.9 °F 14.5 °F 9.0 °F 58% 29.99 in 10.0 mi ENE 5.8 mph - N/A   Clear
2:53 PM 24.1 °F - 8.1 °F 51% 29.99 in 10.0 mi Calm Calm - N/A   Clear
3:53 PM 23.0 °F - 7.0 °F 50% 30.00 in 10.0 mi Calm Calm - N/A   Clear
4:53 PM 19.9 °F 12.1 °F 6.1 °F 55% 30.00 in 10.0 mi WNW 5.8 mph - N/A   Clear
5:31 PM 17.6 °F - 6.8 °F 63% 29.95 in 0.8 mi Calm Calm - N/A   Haze
5:39 PM 17.6 °F - 6.8 °F 63% 29.95 in 3.0 mi Calm Calm - N/A   Haze
6:45 PM 14.0 °F - 8.6 °F 79% 29.98 in 2.5 mi Calm Calm - N/A   Haze
6:53 PM 15.1 °F - 8.1 °F 74% 30.03 in 5.0 mi Calm Calm - N/A   Haze
7:53 PM 12.9 °F - 7.0 °F 77% 30.01 in 10.0 mi Calm Calm - N/A   Clear
8:53 PM 8.1 °F - 3.0 °F 80% 30.00 in 10.0 mi Calm Calm - N/A   Clear
9:53 PM 8.1 °F - 3.0 °F 80% 30.00 in 5.0 mi Calm Calm - N/A   Haze
10:53 PM 10.0 °F - 6.1 °F 84% 29.96 in 7.0 mi Calm Calm - N/A   Clear
11:53 PM 8.1 °F - 5.0 °F 87% 29.96 in 9.0 mi Calm Calm - N/A   Clear